Regional Weather Roundup
Issued by NWS Albany, NY

Home | Current Version | Previous Version | Text Only | Print | Product List | Glossary On
Versions: 1 2 3 4 5 6 7 8 9 10 11 12 13 14 15 16 17 18 19 20 21 22 23 24 25 26 27 28 29 30 31 32 33 34 35 36 37 38 39 40 41 42 43 44 45 46 47 48 49 50
000
ASUS41 KALY 051510
RWRALY

NEW YORK STATE HOURLY WEATHER ROUNDUP
NATIONAL WEATHER SERVICE ALBANY NY
1100 AM EDT SUN JUL 05 2015

NOTE: "FAIR" INDICATES FEW OR NO CLOUDS BELOW 12,000 FEET WITH NO
SIGNIFICANT WEATHER AND/OR NO OBSTRUCTIONS TO VISIBILITY.

NYZ032-033-038>043-046>054-057>066-NYZ062>081-051600-
EAST


CITY           SKY/WX    TMP DP  RH WIND       PRES   REMARKS
ALBANY         MOSUNNY   75  63  66 CALM      30.12S
GLENS FALLS    MOSUNNY   68  61  78 S6        30.11S
POUGHKEEPSIE   SUNNY     74  61  63 CALM      30.12S
NEWBURGH       MOSUNNY   73  64  73 CALM      30.15R
MONTGOMERY     SUNNY     75  64  68 S5        30.13S
WHITE PLAINS   MOSUNNY   74  63  68 VRB3      30.13S
ISLIP          PTSUNNY   78  60  53 NW8       30.11S
NEW YORK CITY  PTSUNNY   77  61  57 N5        30.12S
CENTRAL PARK   MOSUNNY   76  61  59 CALM      30.16S
$$

NYZ005>009-017-018-044>046-055-056-051600-
CENTRAL


CITY           SKY/WX    TMP DP  RH WIND       PRES   REMARKS
FULTON         SUNNY     71  61  70 SW6       30.13S
SYRACUSE       MOSUNNY   73  61  65 SW7       30.12F
ROME           SUNNY     70  59  68 VRB3      30.14S
ELMIRA         SUNNY     72  62  71 VRB6      30.15S
BINGHAMTON     SUNNY     69  58  67 CALM      30.18S
MONTICELLO     SUNNY     72  57  60 W6        30.18R
$$

NYZ026>034-041>043-051600-
NORTH


CITY           SKY/WX    TMP DP  RH WIND       PRES   REMARKS
WATERTOWN      SUNNY     71  61  70 SW9       30.11R
FORT DRUM      NOT AVBL
MASSENA        SUNNY     73  60  63 W6        30.09R
SARANAC LAKE   PTSUNNY   68  58  70 W7        30.10S
PLATTSBURGH    MOSUNNY   70  63  78 SE10      30.06R
$$

NYZ001>004-010>016-019>021-051600-
WEST


CITY           SKY/WX    TMP DP  RH WIND       PRES   REMARKS
NIAGARA FALLS  SUNNY     74  61  63 SW7       30.13S
BUFFALO        SUNNY     72  58  61 SW8       30.14F
DUNKIRK        SUNNY     73  56  54 W5        30.15S
JAMESTOWN      SUNNY     70  57  64 S5        30.20R
WELLSVILLE     SUNNY     71  56  58 CALM      30.21S
ROCHESTER      SUNNY     74  60  61 VRB3      30.14S
PENN YAN       SUNNY     73  60  63 W3        30.15F
$$

             KEY
       WCI = WIND CHILL INDEX
       VSB = VISIBILITY
       HX  = HEAT INDEX
$$


USA.gov is the U.S. government's official web portal to all federal, state and local government web resources and services.